Weather History for Astoria, OR

Change the Weather History Date:

Sunday, March 9, 2014

  Actual Average Record
Temperature  
Mean Temperature 52 °F 46 °F  
Max Temperature 54 °F 53 °F 73 °F (1934)
Min Temperature 49 °F 38 °F 27 °F (1969)
Degree Days  
Heating Degree Days 13 19  
Month to date heating degree days 133 176  
Since 1 July heating degree days 3562 3518  
Cooling Degree Days 0 0  
Month to date cooling degree days 0 0  
Year to date cooling degree days 0 0  
Growing Degree Days 1 (Base 50)    
Moisture  
Dew Point 48 °F    
Average Humidity 92    
Maximum Humidity 100    
Minimum Humidity 83    
Precipitation  
Precipitation 0.70 in 0.25 in 1.51 in (1998)
Month to date precipitation 4.93 2.28  
Year to date precipitation 18.69 19.67  
Sea Level Pressure  
Sea Level Pressure 29.99 in    
Wind  
Wind Speed 7 mph (SW)    
Max Wind Speed 15 mph    
Max Gust Speed 20 mph    
Visibility 6 miles    
Events Rain    
T = Trace of Precipitation, MM = Missing Value Source: NWS Daily Summary

Daily Weather History Graph

Daily Weather History Graph

Search for Another Location

Airport:

Trip Planner

Search our weather history database for the weather conditions in past years. The results will help you decide how hot, cold, wet, or windy it might be!

Date:

Astronomy

Mar. 09, 2014 Rise Set
Actual Time 7:39 AM PDT 7:13 PM PDT
Civil Twilight 7:09 AM PDT 7:43 PM PDT
Nautical Twilight 6:34 AM PDT 8:17 PM PDT
Astronomical Twilight 5:59 AM PDT 8:53 PM PDT
Moon 12:56 PM PDT (3/9) 3:23 AM PDT (3/9)
Length of Visible Light 12h 33m
Length of Day
11h 33m
First Quarter, 62% of the Moon is Illuminated
Mar 9
First Quarter
Mar 16
Full
Mar 23
Last Quarter
Mar 30
New
Apr 7
First Quarter

Hourly Weather History & Observations

Time (PDT) Temp. Dew Point Humidity Pressure Visibility Wind Dir Wind Speed Gust Speed Precip Events Conditions
12:23 AM 51.1 °F 48.9 °F 92% 29.92 in 1.8 mi WSW 10.4 mph - 0.00 in Rain Light Rain
12:34 AM 51.1 °F 48.9 °F 92% 29.92 in 2.5 mi WSW 12.7 mph - 0.01 in Rain Light Rain
12:55 AM 50.0 °F 48.9 °F 96% 29.93 in 2.5 mi SW 8.1 mph - 0.02 in Rain Light Rain
1:08 AM 50.0 °F 48.9 °F 96% 29.93 in 4.0 mi SW 6.9 mph - 0.00 in Rain Light Rain
1:35 AM 50.0 °F 48.9 °F 96% 29.93 in 2.0 mi SW 5.8 mph - 0.04 in Rain Light Rain
1:55 AM 50.0 °F 48.9 °F 96% 29.94 in 2.0 mi SW 8.1 mph - 0.10 in Rain Rain
3:02 AM 50.0 °F 48.9 °F 96% 29.94 in 2.5 mi SW 5.8 mph - 0.02 in Rain Light Rain
3:04 AM 50.0 °F 48.9 °F 96% 29.94 in 3.0 mi SW 5.8 mph - 0.03 in Rain Rain
3:55 AM 51.1 °F 48.9 °F 92% 29.93 in 2.5 mi SSW 5.8 mph - 0.13 in Rain Light Rain
4:55 AM 50.0 °F 48.9 °F 96% 29.94 in 3.0 mi SW 4.6 mph - 0.16 in Rain Rain
5:23 AM 50.0 °F 48.9 °F 96% 29.95 in 2.5 mi WSW 5.8 mph - 0.07 in Rain Rain
5:42 AM 50.0 °F 48.9 °F 96% 29.95 in 3.0 mi West 4.6 mph - 0.14 in Rain Rain
5:55 AM 50.0 °F 48.9 °F 96% 29.95 in 4.0 mi WNW 4.6 mph - 0.16 in Rain Light Rain
6:55 AM 48.9 °F 48.0 °F 97% 29.96 in 5.0 mi NNE 3.5 mph - 0.11 in Rain Light Rain
7:55 AM 48.9 °F 48.0 °F 97% 29.97 in 9.0 mi Calm Calm - 0.02 in Rain Light Rain
8:10 AM 48.9 °F 48.0 °F 97% 29.98 in 9.0 mi Calm Calm - 0.00 in   Overcast
8:30 AM 50.0 °F 48.0 °F 93% 29.98 in 6.0 mi Calm Calm - 0.00 in Rain Light Rain
8:40 AM 50.0 °F 48.0 °F 93% 29.98 in 8.0 mi Calm Calm - 0.00 in   Overcast
8:55 AM 50.0 °F 48.0 °F 93% 29.98 in 9.0 mi SE 3.5 mph - 0.00 in   Overcast
9:16 AM 51.1 °F 48.9 °F 92% 29.99 in 9.0 mi Calm Calm - N/A   Overcast
9:55 AM 51.1 °F 50.0 °F 96% 30.01 in 10.0 mi WSW 3.5 mph - N/A   Overcast
10:42 AM 52.0 °F 48.9 °F 89% 30.03 in 8.0 mi SW 5.8 mph - N/A   Overcast
10:55 AM 53.1 °F 48.9 °F 86% 30.04 in 5.0 mi SW 4.6 mph - N/A   Overcast
11:55 AM 54.0 °F 48.9 °F 83% 30.04 in 10.0 mi WSW 4.6 mph - N/A   Overcast
12:35 PM 53.1 °F 48.9 °F 86% 30.04 in 10.0 mi West 8.1 mph - N/A   Overcast
12:41 PM 54.0 °F 48.9 °F 83% 30.04 in 10.0 mi West 5.8 mph - N/A   Overcast
12:55 PM 54.0 °F 48.9 °F 83% 30.04 in 10.0 mi WSW 6.9 mph - N/A   Overcast
1:06 PM 53.1 °F 48.9 °F 86% 30.04 in 10.0 mi SW 5.8 mph - N/A   Overcast
1:50 PM 53.6 °F 48.2 °F 82% 30.03 in 10.0 mi West 13.8 mph - N/A   Overcast
1:55 PM 52.0 °F 48.9 °F 89% 30.03 in 3.0 mi West 10.4 mph - N/A   Overcast
1:58 PM 52.0 °F 48.9 °F 89% 30.03 in 1.5 mi WSW 10.4 mph - N/A   Overcast
2:02 PM 52.0 °F 50.0 °F 93% 30.03 in 0.8 mi West 8.1 mph - N/A   Overcast
2:08 PM 52.0 °F 51.1 °F 97% 30.03 in 1.5 mi WSW 8.1 mph - N/A   Overcast
2:10 PM 53.1 °F 51.1 °F 93% 30.02 in 3.0 mi WSW 8.1 mph - N/A   Overcast
2:30 PM 53.1 °F 50.0 °F 89% 30.01 in 10.0 mi WSW 8.1 mph - N/A   Overcast
2:55 PM 52.0 °F 50.0 °F 93% 30.02 in 7.0 mi WSW 12.7 mph - N/A   Overcast
3:21 PM 52.0 °F 48.9 °F 89% 30.01 in 9.0 mi WSW 11.5 mph - N/A   Overcast
3:53 PM 53.6 °F 50.0 °F 88% 30.01 in 10.0 mi WSW 11.5 mph - N/A   Overcast
3:55 PM 53.1 °F 50.0 °F 89% 30.01 in 10.0 mi WSW 9.2 mph - N/A   Overcast
4:35 PM 52.0 °F 48.9 °F 89% 30.01 in 10.0 mi SW 8.1 mph - N/A   Overcast
4:55 PM 51.1 °F 48.9 °F 92% 30.01 in 9.0 mi SW 6.9 mph - N/A   Overcast
5:55 PM 51.1 °F 48.0 °F 89% 30.00 in 10.0 mi SW 6.9 mph - N/A   Overcast
6:10 PM 50.0 °F 48.0 °F 93% 29.99 in 10.0 mi SW 8.1 mph - N/A   Overcast
6:55 PM 50.0 °F 48.0 °F 93% 29.99 in 5.0 mi SW 9.2 mph - N/A   Overcast
7:55 PM 50.0 °F 48.0 °F 93% 29.99 in 8.0 mi SW 8.1 mph - 0.00 in Rain Light Rain
8:41 PM 50.0 °F 46.9 °F 89% 29.99 in 2.5 mi SW 11.5 mph - 0.06 in Rain Rain
8:45 PM 50.0 °F 46.9 °F 89% 29.99 in 3.0 mi SW 6.9 mph - 0.08 in Rain Rain
8:55 PM 48.9 °F 46.9 °F 93% 29.99 in 4.0 mi SW 10.4 mph - 0.10 in Rain Rain
9:55 PM 48.9 °F 46.9 °F 93% 29.99 in 10.0 mi South 5.8 mph - 0.05 in   Overcast
10:55 PM 48.9 °F 46.9 °F 93% 29.99 in 10.0 mi SW 6.9 mph - N/A   Overcast
11:13 PM 48.9 °F 46.9 °F 93% 29.99 in 9.0 mi WSW 5.8 mph - N/A   Overcast
11:43 PM 48.9 °F 46.9 °F 93% 29.99 in 10.0 mi SSW 9.2 mph - N/A   Overcast
11:53 PM 48.2 °F 46.4 °F 93% 29.99 in 10.0 mi SW 8.1 mph - N/A   Overcast
11:55 PM 48.9 °F 46.9 °F 93% 29.99 in 10.0 mi SW 8.1 mph - N/A   Overcast
12:29 AM 48.9 °F 46.9 °F 93% 29.99 in 10.0 mi SW 5.8 mph - N/A   Overcast
12:38 AM 48.9 °F 46.9 °F 93% 29.99 in 5.0 mi SW 5.8 mph - 0.00 in Rain Light Rain
12:47 AM 50.0 °F 46.9 °F 89% 29.99 in 8.0 mi SW 6.9 mph - 0.00 in Rain Light Rain
12:55 AM 50.0 °F 46.9 °F 89% 29.99 in 4.0 mi WSW 6.9 mph - 0.01 in Rain Light Rain